"Pseudo-MPEC" for P10OvCB

Created 2019 Jun 15 1:09:36 UT using Find_Orb

Click here for an explanation of pseudo-MPECs

 
 Astrometry: 
     P10OvCB  C2019 02 08.43498 12 10 46.95 +20 58 03.6    ~68MM 21.2 GVNEOCPG96
     P10OvCB  C2019 02 08.44016 12 10 46.88 +20 58 06.1    ~68MM 21.9 GVNEOCPG96
     P10OvCB  C2019 02 08.44532 12 10 46.83 +20 58 08.1    ~68MM 21.6 GVNEOCPG96
     P10OvCB  C2019 02 08.45049 12 10 46.69 +20 58 09.6    ~68MM 21.4 GVNEOCPG96
     P10OvCB  C2019 04 07===pf`^mSN*5)?CI]@y+cHBx%=;Bw1b]p*IE^#ON,Hq/_k^PC`rCF51
     P10OvCB  C2019 04 07^x;yt817P[SZ^x?a'GGO1hc7':4gfWAstrometryLdL%9ejP;K]OF51
     P10OvCB  C2019 04 07c6HJ=oLGredacted;g]5QNpEb^1sdPCie4sZ9Vc#l2'd[-1IjTrqF51
     P10OvCB  C2019 04 07yZ/dclick.M:.p]M*VaxgJ!36\wrj.u4cO-4(ACl)p-7fDKU%IB*F51
     P10OvCB  C2019 06 01$Ut:Sherel^;gsXlx!ik+9RBZv;+Qt.MXf)S6Ee+g8d]r0\sM$mYF51
     P10OvCB  C2019 06 01!MUXaj@4I,qg-!,mBD1A5uCnioWeOrUo-XV$ZCf6O3XsD8i?T$owF51
     P10OvCB  C2019 06 01L8yA.1`])-jN=I/`5yiHWFp+eJc46L!1[2rrphforY`v/%6x$%6AF51
     P10OvCB  C2019 06 01F`fdjfZ'hEbT=4J+nejt'[M``MP\Nexplanation6bn,Hg@O/fk=F51
     P10OvCB  C2019 06 02.24982 11 38 17.88 +25 17 23.9    ~6277 22.0 GVNEOCPV06
     P10OvCB  C2019 06 02.25818 11 38 17.98 +25 17 22.6    ~6277 22.7 GVNEOCPV06
     P10OvCB  C2019 06 02.26654 11 38 18.05 +25 17 20.8    ~6277 22.7 GVNEOCPV06
     P10OvCB  C2019 06 02.27482 11 38 18.15 +25 17 19.8    ~6277 22.4 GVNEOCPV06
     P10OvCB ^C2019 06 07.35641711 39 18.393+24 59 47.65   ~67Kq 21.83GVNEOCP568
     P10OvCB ^C2019 06 07.35759711 39 18.407+24 59 47.39   ~67Kq 21.84GVNEOCP568
     P10OvCB ^C2019 06 07.35878211 39 18.424+24 59 47.15   ~67Kq 21.81GVNEOCP568

Station data:
(568) Mauna Kea  (N19.826116 W155.472200)  US/Hawaii.
(F51) Pan-STARRS 1, Haleakala  (N20.707235 W156.255910)  US/Hawaii.
   Observers N. Primak, A. Schultz, S. Watters, J. Thiel, T. Goggia. Measurer
   PS1 Science Consortium. 1.8-m Ritchey-Chrétien + CCD.
(G96) Mt. Lemmon Survey  (N32.442754 W110.788720)  US/Arizona.  Observers T.
   A. Pruyne, B. M. Africano, E. J. Christensen, G. A. Farneth, D. C. Fuls,
   A. R. Gibbs, A. D. Grauer, H. Groeller, J. A. Johnson, R. A. Kowalski, S.
   M. Larson, G. J. Leonard, R. L. Seaman, F. C. Shelly. 1.5-m reflector +
   10K CCD.
(V06) Catalina Sky Survey-Kuiper  (N32.416847 W110.732550)  US/Arizona.
   Observers T. A. Pruyne, B. M. Africano, E. J. Christensen, G. A. Farneth,
   D. C. Fuls, A. R. Gibbs, A. D. Grauer, H. Groeller, J. A. Johnson, R. A.
   Kowalski, S. M. Larson, G. J. Leonard, R. L. Seaman, F. C. Shelly. 1.55-m
   reflector + CCD.

Orbital elements:  P10OvCB
   Perihelion 2014 Oct 17.083055 +/- 3.4 TT =  1:59:35 (JD 2456947.583055)
Epoch 2019 Jun  7.0 TT = JDT 2458641.5   Ju: 0.0452           AutoNEOCP
M 141.41436100 +/- 0.28             (J2000 ecliptic)
n   0.08348364 +/- 2.72e-6          Peri.  261.80068 +/- 0.24
a   5.18483707 +/- 0.000113         Node   132.88593 +/- 0.0024
e   0.0592789 +/- 0.00026           Incl.   28.48641 +/- 0.0014
P  11.81                   H 14.4   G  0.15   U  4.8  
q 4.87748512 +/- 0.00128    Q 5.49218902 +/- 0.00144
From 19 observations 2019 Feb. 8-June 7; mean residual 0".19
Residuals in arcseconds: 
190208 G96  .01-  .25-    190407 F51  .08-  .04-    190602 V06  .01+  .12-    
190208 G96  .06+  .24+    190601 F51  .08-  .20-    190602 V06  .26+  .55+    
190208 G96  .41+  .23+    190601 F51  .03-  .05-    190607 568  .10-  .03+    
190208 G96  .51-  .28-    190601 F51  .04-  .11-    190607 568  .12-  .03+    
190407 F51  .03+  .09+    190601 F51  .14+  .08+    190607 568  .10-  .05+    
190407 F51  .05+  .03-    190602 V06  .07-  .37-    
190407 F51  .08+  .12+    190602 V06  .17+  .01+    

Ephemerides (geocentric):
Date (UTC) HH   RA              Dec         delta   r     elong  mag " sig PA
---- -- -- --  -------------   -----------  ------ ------ -----  --- ---- ---
2019 06 15 01  11 41 21.215   +24 30 30.07  5.4689 5.4337  82.7 22.4 .263 142
2019 06 15 02  11 41 21.980   +24 30 20.05  5.4695 5.4337  82.6 22.4 .264 142
2019 06 15 03  11 41 22.745   +24 30 10.02  5.4701 5.4337  82.6 22.4 .265 142
2019 06 15 04  11 41 23.512   +24 29 59.99  5.4707 5.4338  82.6 22.4 .266 142
2019 06 15 05  11 41 24.280   +24 29 49.96  5.4714 5.4338  82.5 22.4 .267 142
2019 06 15 06  11 41 25.049   +24 29 39.92  5.4720 5.4338  82.5 22.4 .268 142
2019 06 15 07  11 41 25.819   +24 29 29.87  5.4726 5.4338  82.5 22.4 .269 142
2019 06 15 08  11 41 26.590   +24 29 19.82  5.4732 5.4338  82.4 22.4 .270 142
2019 06 15 09  11 41 27.362   +24 29 09.77  5.4738 5.4338  82.4 22.4 .271 142
2019 06 15 10  11 41 28.135   +24 28 59.71  5.4744 5.4338  82.4 22.4 .272 142
2019 06 15 11  11 41 28.909   +24 28 49.65  5.4750 5.4338  82.3 22.4 .273 142
2019 06 15 12  11 41 29.684   +24 28 39.58  5.4756 5.4338  82.3 22.4 .274 142
2019 06 15 13  11 41 30.460   +24 28 29.50  5.4763 5.4339  82.3 22.4 .276 142
2019 06 15 14  11 41 31.237   +24 28 19.42  5.4769 5.4339  82.2 22.4 .277 142
2019 06 15 15  11 41 32.015   +24 28 09.34  5.4775 5.4339  82.2 22.4 .278 142
2019 06 15 16  11 41 32.794   +24 27 59.25  5.4781 5.4339  82.2 22.4 .279 142
2019 06 15 17  11 41 33.575   +24 27 49.15  5.4787 5.4339  82.1 22.4 .280 142
2019 06 15 18  11 41 34.356   +24 27 39.06  5.4793 5.4339  82.1 22.4 .281 141
2019 06 15 19  11 41 35.138   +24 27 28.95  5.4799 5.4339  82.1 22.4 .282 141
2019 06 15 20  11 41 35.922   +24 27 18.84  5.4805 5.4339  82.0 22.4 .283 141
2019 06 15 21  11 41 36.706   +24 27 08.73  5.4812 5.4339  82.0 22.4 .284 141
2019 06 15 22  11 41 37.491   +24 26 58.61  5.4818 5.4339  82.0 22.4 .285 141
2019 06 15 23  11 41 38.278   +24 26 48.49  5.4824 5.4340  81.9 22.4 .287 141
2019 06 16 00  11 41 39.065   +24 26 38.36  5.4830 5.4340  81.9 22.4 .288 141
2019 06 16 01  11 41 39.854   +24 26 28.23  5.4836 5.4340  81.9 22.4 .289 141
2019 06 16 02  11 41 40.644   +24 26 18.09  5.4842 5.4340  81.8 22.4 .290 141
2019 06 16 03  11 41 41.434   +24 26 07.95  5.4848 5.4340  81.8 22.4 .291 141
2019 06 16 04  11 41 42.226   +24 25 57.80  5.4854 5.4340  81.8 22.4 .292 141
2019 06 16 05  11 41 43.018   +24 25 47.65  5.4860 5.4340  81.7 22.4 .293 141
2019 06 16 06  11 41 43.812   +24 25 37.49  5.4867 5.4340  81.7 22.4 .294 141
2019 06 16 07  11 41 44.607   +24 25 27.33  5.4873 5.4340  81.7 22.4 .295 141
2019 06 16 08  11 41 45.403   +24 25 17.16  5.4879 5.4341  81.6 22.4 .297 141
2019 06 16 09  11 41 46.199   +24 25 06.99  5.4885 5.4341  81.6 22.4 .298 141
2019 06 16 10  11 41 46.997   +24 24 56.81  5.4891 5.4341  81.6 22.4 .299 141
2019 06 16 11  11 41 47.796   +24 24 46.63  5.4897 5.4341  81.5 22.4 .300 141
2019 06 16 12  11 41 48.596   +24 24 36.45  5.4903 5.4341  81.5 22.4 .301 141
2019 06 16 13  11 41 49.397   +24 24 26.25  5.4909 5.4341  81.5 22.4 .302 141
2019 06 16 14  11 41 50.199   +24 24 16.06  5.4915 5.4341  81.4 22.4 .303 141
2019 06 16 15  11 41 51.002   +24 24 05.86  5.4922 5.4341  81.4 22.4 .304 141
2019 06 16 16  11 41 51.806   +24 23 55.65  5.4928 5.4341  81.4 22.4 .305 141
2019 06 16 17  11 41 52.611   +24 23 45.44  5.4934 5.4341  81.3 22.4 .307 141
2019 06 16 18  11 41 53.417   +24 23 35.23  5.4940 5.4342  81.3 22.4 .308 141
2019 06 16 19  11 41 54.224   +24 23 25.01  5.4946 5.4342  81.3 22.4 .309 141
2019 06 16 20  11 41 55.032   +24 23 14.79  5.4952 5.4342  81.2 22.4 .310 141
2019 06 16 21  11 41 55.841   +24 23 04.56  5.4958 5.4342  81.2 22.4 .311 141
2019 06 16 22  11 41 56.651   +24 22 54.32  5.4964 5.4342  81.2 22.4 .312 140
2019 06 16 23  11 41 57.462   +24 22 44.08  5.4970 5.4342  81.1 22.4 .313 140
2019 06 17 00  11 41 58.274   +24 22 33.84  5.4977 5.4342  81.1 22.4 .315 140